Location: Mascot Post Office (historical)
(40.2645°N, 99.5462°W)
Time: 16:58:38
(UTC+00:00)

In-Cosmos 22 Rocket - Pass Details

Date: 14 July 2020
Orbit: 791 x 887 km, 81.2° (Epoch: 05 August)

Event Time Altitude Azimuth Distance (km) Brightness Sun altitude
Exits shadow 03:52:28 15° 184° (S) 2,022 5.8 -16.4°
Maximum altitude 03:56:54 82° 98° (E) 805 4.0 -16.9°
Drops below altitude 10° 04:02:16 10° 11° (N) 2,382 7.1 -17.6°
Sets 04:04:41 0° 11° (N) 3,327 7.9 -17.8°
